Regional Weather Roundup
Issued by NWS

Home | Current Version | Previous Version | Text Only | Print | Product List | Glossary Off
Versions: 1 2 3 4 5 6 7 8 9 10 11 12 13 14 15 16 17 18 19 20 21 22 23 24 25 26 27 28 29 30 31 32 33 34 35 36 37 38 39 40 41 42 43 44 45 46 47 48 49 50

000
ASUS43 KFSD 160902
RWRSD

WEATHER ROUNDUP FOR SOUTH DAKOTA
NATIONAL WEATHER SERVICE SIOUX FALLS SD
300 AM CST TUE JAN 16 2018

NOTE: "FAIR" INDICATES FEW OR NO CLOUDS BELOW 12,000 FEET WITH NO
SIGNIFICANT WEATHER AND/OR OBSTRUCTIONS TO VISIBILITY.


SDZ001>005-009-010-012>017-161000-
NORTHWEST AND NORTH CENTRAL SOUTH DAKOTA

CITY           SKY/WX    TMP DP  RH WIND       PRES   REMARKS
BUFFALO          N/A    -12 -18  74 S6        30.51F WCI -26
FAITH            N/A    -15 -20  78 SW7       30.69F WCI -31
MOBRIDGE       PTCLDY   -11 -18  71 N6        30.75F WCI -25
$$

SDZ012>016-024>037-041>051-057-063-072>074-161000-
SOUTHWEST AND SOUTH CENTRAL SOUTH DAKOTA

CITY           SKY/WX    TMP DP  RH WIND       PRES   REMARKS
RAPID CTY ARPT CLEAR     -9 -15  75 SE5       30.64F WCI -20
PIERRE         CLEAR     -8 -14  74 NW12      30.80R WCI -27
CUSTER         CLEAR     -2 -26  31 W3        30.41S
ELLSWORTH AFB  CLEAR     -6 -10  81 CALM      30.63F
PHILIP         CLEAR    -13 -18  78 W7        30.78S WCI -29
PINE RIDGE     CLEAR    -17 -22  78 CALM      30.66S
SPEARFISH        N/A     -6 -13  71 SW5       30.55F WCI -17
WINNER         FAIR      -6 -13  71 W8        30.77R WCI -21
$$

SDZ004>011-016>023-039-040-161000-
NORTHEAST SOUTH DAKOTA

CITY           SKY/WX    TMP DP  RH WIND       PRES   REMARKS
ABERDEEN       CLOUDY   -10 -16  74 NW6       30.82S WCI -23
WATERTOWN      CLOUDY    -9 -14  78 N17       30.68S WCI -32
BROOKINGS      CLOUDY    -7 -11  83 NW15      30.68R WCI -28
SISSETON         N/A     -8 -14  74 NW18      30.78R WCI -32
$$

SDZ017-020-022-023-036>040-048>070-161000-
SOUTHEAST SOUTH DAKOTA

CITY           SKY/WX    TMP DP  RH WIND       PRES   REMARKS
SIOUX FALLS    CLOUDY    -3  -8  79 N14       30.70R WCI -22
HURON          CLEAR     -9 -15  75 NW14      30.81R WCI -30
CHAMBERLAIN    CLEAR     -6 -12  73 W13       30.79S WCI -25
MITCHELL       PTCLDY    -6 -13  71 N17       30.80R WCI -28
YANKTON        CLOUDY    -3  -9  75 NW20      30.76R WCI -26
$$

ABBREVIATIONS USED IN REMARKS
   TC - TEMPERATURE IN CELSIUS
  WCI - WIND CHILL INDEX
   HX - HEAT INDEX
  VSB - VISIBILITY





USA.gov is the U.S. government's official web portal to all federal, state and local government web resources and services.